Orbital Elements at Epoch 2459000.5 (2020-May-31.0) TDB
Reference: JPL 18 (heliocentric ecliptic J2000)
Element | Value | Uncertainty (1-sigma) | Units |
e | .1193413842788067 | 5.1935e-08 | |
a | 2.917691484885779 | 1.7851e-08 | au |
q | 2.569490144181023 | 1.5616e-07 | au |
i | .8911125317211771 | 3.5089e-06 | deg |
node | 264.6412497978887 | 0.00031067 | deg |
peri | 88.94077959231906 | 0.00031113 | deg |
M | 324.8728798463742 | 1.5256e-05 | deg |
tp | 2459178.122314259439 (2020-Nov-24.62231426) | 7.6754e-05 | TDB |
period | 1820.360816763336 4.98 | 1.6706e-05 4.574e-08 | d yr |
n | .1977629910976069 | 1.8149e-09 | deg/d |
Q | 3.265892825590535 | 1.9981e-08 | au |
|
| | Orbit Determination Parameters
Additional Information
|